Location: *
(39.6167°S, 171.5333°W)
Time: 22:37:39
(UTC+00:00)

CZ-4 R/B - Pass Details

Date: 13 May 2021
Orbit: 530 x 597 km, 97.7° (Epoch: 15 June)

Event Time Altitude Azimuth Distance (km) Brightness Sun altitude
Rises 17:25:26 0° 39° (NE) 2,724 5.8 -11.2°
Reaches altitude 10° 17:27:44 10° 50° (NE) 1,850 5.2 -10.7°
Maximum altitude 17:31:11 29° 110° (ESE) 1,077 3.5 -10.1°
Drops below altitude 10° 17:34:45 10° 170° (S) 1,910 4.0 -9.4°
Sets 17:37:09 0° 180° (S) 2,830 4.8 -9.0°
